Regional Weather Roundup
Issued by NWS

Home | Current Version | Previous Version | Graphics & Text | Print | Product List | Glossary On
Versions: 1 2 3 4 5 6 7 8 9 10 11 12 13 14 15 16 17 18 19 20 21 22 23 24 25 26 27 28 29 30 31 32 33 34 35 36 37 38 39 40 41 42 43 44 45 46 47 48 49 50
741
ASUS43 KMKX 300100
RWRWI

WISCONSIN REGIONAL WEATHER ROUNDUP
NATIONAL WEATHER SERVICE MILWAUKEE/SULLIVAN WI
800 PM CDT WED MAR 29 2017

NOTE: "FAIR" INDICATES FEW OR NO CLOUDS BELOW 12,000 FEET WITH NO
SIGNIFICANT WEATHER AND/OR OBSTRUCTIONS TO VISIBILITY.

WIZ001-002-006>008-014>016-023>028-300200-
NORTHWEST WISCONSIN

CITY           SKY/WX    TMP DP  RH WIND       PRES   REMARKS
SUPERIOR ARPT  CLOUDY    33  31  92 NE13      30.24S WCI  24
ASHLAND        CLOUDY    34  29  82 N6        30.22S WCI  29
HAYWARD        MOCLDY    45  32  60 NE5       30.17S
SIREN          CLOUDY    47  33  57 CALM      30.17S
CUMBERLAND     CLOUDY    45  32  61 CALM      30.17F
RICE LAKE      CLOUDY    46  33  62 CALM      30.19S
CHETEK         CLOUDY    45  34  65 E9        30.18F
LADYSMITH      CLOUDY    46  32  59 CALM      30.20S
EAU CLAIRE     NOT AVBL
MENOMONIE      CLOUDY    45  36  70 SE13      30.18S
NEW RICHMOND   CLOUDY    44  33  64 E3        30.17S
OSCEOLA        CLOUDY    46  34  63 E3        30.19F
$$

WIZ003>005-009-010-017-018-300200-
NORTH CENTRAL WISCONSIN

CITY           SKY/WX    TMP DP  RH WIND       PRES   REMARKS
MANITOWISH WTR CLOUDY    42  29  60 CALM      30.19R
ARBOR VITAE    CLOUDY    44  30  57 SE5       30.19S
WOODRUFF       CLOUDY    44  30  57 SE5       30.19S
RHINELANDER    CLOUDY    41  29  62 E6        30.20S
EAGLE RIVER    CLOUDY    41  26  54 E3        30.20S
LAND O LAKES   CLOUDY    41  28  57 E3        30.22S
PHILLIPS       CLOUDY    43  31  61 SE3       30.18S
TOMAHAWK       CLOUDY    41  30  63 CALM      30.20S
MEDFORD        CLOUDY    41  29  63 SE6       30.19R
MERRILL        CLOUDY    42  31  64 CALM      30.21S
$$

WIZ029-030-035-036-043>047-300200-
CENTRAL WISCONSIN

CITY           SKY/WX    TMP DP  RH WIND       PRES   REMARKS
WAUSAU         CLOUDY    41  28  60 SE9       30.20R
MOSINEE        CLOUDY    39  30  70 SE5       30.22R
MARSHFIELD     LGT RAIN  39  34  82 SE5       30.19R
STEVENS POINT  RAIN      38  31  76 E6        30.22R WCI  33
WAUPACA        CLOUDY    42  28  58 NE7       30.22F
WAUTOMA        CLOUDY    41  31  67 E10       30.21S
WISC RAPIDS    LGT RAIN  39  37  92 E7        30.22R WCI  34
CAMP DOUGLAS   DRIZZLE   43  34  70 NE10      30.17S
$$

WIZ011>013-019>022-031-037>040-048>050-300200-
NORTHEAST WISCONSIN

CITY           SKY/WX    TMP DP  RH WIND       PRES   REMARKS
ANTIGO         CLOUDY    38  29  68 E8        30.21S WCI  32
SHAWANO        CLOUDY    41  31  68 NE7       30.23F
OCONTO         CLOUDY    37  26  62 NE5       30.24F WCI  34
STURGEON BAY   CLOUDY    37  28  70 NE8       30.25R WCI  31
GREEN BAY      CLOUDY    38  31  76 NE9       30.23F WCI  31
MANITOWOC      NOT AVBL
APPLETON       CLOUDY    39  27  60 NE9       30.20F WCI  33
CLINTONVILLE   CLOUDY    39  28  65 E8        30.23F WCI  34
OSHKOSH        CLOUDY    39  27  62 NE13      30.21S WCI  31
$$

WIZ032>034-041-042-053>061-300200-
SOUTHWEST WISCONSIN

CITY           SKY/WX    TMP DP  RH WIND       PRES   REMARKS
LA CROSSE      LGT RAIN  44  40  85 E12       30.15F FOG
SPARTA         RAIN      42  38  87 E12       30.18S
VIROQUA        CLOUDY    41  39  92 NE12G18   30.12F
BOSCOBEL       LGT RAIN  42  38  85 E7        30.15R
PRAIRIE DU CHI RAIN      39  38  97 NE12      30.12R WCI  32
PLATTEVILLE    CLOUDY    40  38  95 E22G28    30.09R WCI  29
$$

WIZ056-057-062-063-064-067-068-300200-
SOUTH CENTRAL WISCONSIN

CITY           SKY/WX    TMP DP  RH WIND       PRES   REMARKS
REEDSBURG      CLOUDY    42  38  86 E10       30.15F
BARABOO/DELLS  CLOUDY    41  33  72 E9        30.14F
LONE ROCK      LGT RAIN  43  36  76 E17       30.12F
MINERAL POINT  LGT RAIN  37  37 100 E17G29    30.08F WCI  28
MADISON        RAIN      42  36  79 E17       30.14F
MIDDLETON      CLOUDY    43  38  83 E17       30.15F
WATERTOWN      DRIZZLE   41  32  70 N8        30.17R
MONROE         LGT RAIN  39  37  93 NE16G24   30.10R WCI  30
JANESVILLE     NOT AVBL
$$

WIZ051-052-058>065-066-070>072-300200-
SOUTHEAST WISCONSIN

CITY           SKY/WX    TMP DP  RH WIND       PRES   REMARKS
MILWAUKEE      LGT RAIN  39  34  82 NE15      30.18R WCI  31
WAUKESHA       RAIN      37  30  75 NE10G17   30.19R WCI  30
MILWAUKEE/TIMM CLOUDY    39  30  70 NE6       30.21R WCI  35
RACINE         LGT RAIN  38  34  85 N15G24    30.18R WCI  29
KENOSHA        LGT RAIN  39  35  86 N18       30.13S WCI  30
FOND DU LAC    CLOUDY    40  28  62 NE9       30.21S WCI  34
SHEBOYGAN      CLOUDY    38  30  73 N8        30.21R WCI  32
WEST BEND      CLOUDY    37  32  81 NE6       30.20R WCI  33
JUNEAU         CLOUDY    40  30  66 NE5       30.20R
$$

LSZ147-162-300200-
LAKE SUPERIOR

STATION/POSITION TIME  TEMP    WIND        PRES    WAVE
                       AIR SEA DIR/SP/G            HT/PER
                 (UTC) (F)     (DEG/KT/KT) (MB)    (FT/S)
DEVILS ISLAND    0000   34      60/ 19/ 23 1024.8F
PORT WING        0040   35      40/ 17/ 20 1023.7S
SAXON HARBOR     0040   36     200/  4/  5 1022.7F
$$

LMZ867-665-643>646-300200-
LAKE MICHIGAN

STATION/POSITION TIME  TEMP    WIND        PRES    WAVE
                       AIR SEA DIR/SP/G            HT/PER
                 (UTC) (F)     (DEG/KT/KT) (MB)    (FT/S)
CHAMBERS ISLAND  0040   36      40/ 10/ 12 1024.0S
NORTHPORT PIER   0040   36      60/  9/ 13 1024.4F
KEWAUNEE LAKESHO 0030   36      30/  6/  9 1023.8R
SHEBOYGAN LAKESH 0000   37      10/ 20/ 21 1023.1R
PORT WASHINGTON  0030   40      10/  7/ 12 1023.0R
MILWAUKEE LAKESH 0030   38     350/ 12/ 17   N/A
KENOSHA   LAKESH 0000   39      10/ 16/ 20 1020.7
$$

TC  - TEMPERATURE IN CELSIUS
VSB - VISIBILITY IN STATUTE MILES
WCI - WIND CHILL INDEX
HX  - HEAT INDEX





USA.gov is the U.S. government's official web portal to all federal, state and local government web resources and services.